Pagrindinis puslapis
METAR-TAF:

METAR-TAF

Oro uostai :

La Carlota, Venesuela

platuma: 10-30N, ilguma: 066-53W, Aukštis: 835 m

Dabartinis oras

Ataskaita buvo paskelbta 44 minutes, ne 02:02 UTC
Vėjas 2 kt iš Rytų
Temperatūra 23°C
Drėgmė 89%
Slėgis 1017 hPa

METAR: SVFM 270202Z AUTO 09002KT NCD 23/21 Q1017

Laikas: 22:46 (02:46 UTC)


TAF: trūkstamas

Orai ataskaitas ir orų prognozės (METAR, TAF).

turimą stotys yra geltonos ir raudonos taškus žemėlapyje.

Perkelti pele per norėdami pamatyti stoties vardą.

Tada spustelėkite, norėdami matyti oro stebėjimo ir prognozės.

Norėdami pakeisti žemėlapį: spustelėkite ant žalios mygtukų su juodo kryžiaus žemyn,; žalią mygtuką su brūkšneliu, jei norite nutolinti; arba žalių rodyklių gretimoms žemėlapius.


METAR-TAF: